Погода в Ныде

Погода в Ныде : погода сейчас, прогноз погоды и архив. Всё, что Вы хотите узнать о погоде в Ныде!

Хотите узнать прогноз погоды в Ныде? Тогда Вам сюда: Погода в Ныде

Поиск расширенной информации на нашем сайте:

Другие новости

Новости СМИ2

Главная страница сайта

Новости сайта

03.07.2017

Напоминаем, что на нашем специализированном сайте Метеоцентр.Азия вы можете получить высокодетализированные автоматические прогнозы погоды по пунктам России, СНГ и мира в авиационном формате (включающие направление и скорость ветра, видимость, явления погоды, количество и форму облачности, нижнюю и верхнюю границу облачности).

Рекомендуем: Планирование закупок в axapta norbit.ru.

Погода в Ныде - сегодня

Время (UTC), дата Ветер
(°,м/с) 
Видим.   Явления Облачность Т
(°С)
Тd
(°С)
f(%) Тe
(°С)
Pmin
(гПа)
dP
(гПа)
Po
(мм)
O2
(г/м3)
Тmin Tmax R s Состояние
почвы
03 23.07.17 130 (ЮВ) 20000 м    3/0 верхняя 
[Ci fib]
+24.6 +8.5 36 +25  1016.2  0.1  762  280  +14.1         
06 23.07.17 080 (В) 20000 м    3/0 средняя 
[Cu med, cong|Ac trans]
+27.5 +4.6 23 +28  1015.8  -0.4  761  278           
09 23.07.17 350 (С) 20000 м    3/3 600 м 
[Cu hum]
+26.6 +10.7 37 +28  1014.8  -1  761  277           
12 23.07.17 020 (С) 20000 м    3/3 600 м 
[Cu Sc]
+26.6 +13.9 46 +33  1013.9  -0.9  760  276           
15 23.07.17 050 (СВ) 2{10}  20000 м    ясно 
+24.7 +17.2 63 +37  1013.3  -0.6  759  277    +28.2       
18 23.07.17 100 (В) 2{10}  20000 м    ясно 
+14.9 +11.4 80 +19  1013.1  -0.2  759  288           
21 23.07.17 120 (ЮВ) 20000 м    ясно 
+13.7 +11.5 87 +17  1012.7  -0.5  759  289           
00 24.07.17 010 (С) 20000 м    3/3 1000 м 
[Cu Sc]
+15 +12.4 84 +20  1012.3  -0.4  758  287           
03 24.07.17 140 (ЮВ) 20000 м    3/3 600 м 
[Cu Sc]
+23.6 +13.6 53 +30  1011.5  -0.7  758  278  +11.7         
06 24.07.17 150 (ЮВ) 10 км    4/4 600 м 
[Cu hum]
+27.9 +9.7 32 +29  1010.6  -0.9  757  275           
09 24.07.17 350 (С) 10 км  в посл. час ливневой дождь  8/8 600 м кучево-дожд. 
[Cb cap]
+26.2 +13.6 46 +32  1009.6  -1  757  276           
12 24.07.17 090 (В) 20000 м  в посл. час гроза{ливн. осадки}  8/6 600 м кучево-дожд., средняя 
[Cb cap|Ac trans]
+24.1 +15.7 59 +34  1009.5  -0.1  757  277           
15 24.07.17 030 (СВ) 20000 м    8/6 600 м кучево-дожд., средняя, верхняя 
[Cb cap|Ac trans|Ci sp]
+22.9 +15.7 64 +33  1008.7  -0.8  756  278    +28  0.0     
18 24.07.17 030 (СВ) 10 км    8/5 600 м кучево-дожд., средняя, верхняя 
[Cb cap|Ac trans|Ci sp]
+19.9 +17 83 +33  1008.9  0.2  756  280           
21 24.07.17 020 (С) 10 км    5/3 300 м кучево-дожд., верхняя 
[Cb cap|Ci sp]
+18.2 +15.5 84 +27  1008.7  -0.2  756  282           
00 25.07.17 030 (СВ) 10 км    6/3 600 м средняя, верхняя 
[Sc|Ac trans|Ci sp]
+18.4 +16.2 87 +30  1008.8  0.1  756  282           
03 25.07.17 030 (СВ) 10 км    6/4 600 м верхняя 
[Cu Sc|Ci fib]
+20.1 +15.7 76 +30  1009.5  0.7  757  281  +17.3         
06 25.07.17 010 (С) 8-10{10}  20000 м    8/5 600 м верхняя 
[Sc|Ci fib]
+21.7 +15.5 68 +31  1009.2  -0.3  756  279           
09 25.07.17 020 (С) 9-13{14}  20000 м  пыльный позёмок  5/3 600 м верхняя 
[Sc|Ci sp]
+22 +14.4 62 +29  1008.9  -0.3  756  279           
12 25.07.17 020 (С) 9-12{14}  20000 м  пыльный позёмок  3/3 600 м 
[Sc]
+20.8 +12.7 60 +26  1009.2  0.3  756  281           
15 25.07.17 020 (С) 6{12}  20000 м  пыльный позёмок  ясно 
+19.8 +12.5 63 +24  1009.3  0.1  756  282    +22.2       
18 25.07.17 050 (СВ) 6{12}  10 км    3/3 600 м 
[Sc]
+15 +8.8 66 +14  1010.5  1.1  757  288           
21 25.07.17 050 (СВ) 10 км    3/3 300 м 
[Sc]
+12.3 +8.1 76 +12  1010.6  0.1  757  291           
00 26.07.17 060 (СВ) 6{10}  10 км    3/3 300 м 
[Sc]
+10 +6.7 80 +8  1011.1  0.5  758  293           
03 26.07.17 040 (СВ) 20000 м    3/3 600 м 
[Cu Sc]
+14.3 +6.7 60 +14  1011.5  0.4  758  289  +10.8         
Время (UTC), дата Ветер
(°,м/с) 
Видим.   Явления Облачность Т
(°С)
Тd
(°С)
f(%) Тe
(°С)
Pmin
(гПа)
dP
(гПа)
Po
(мм)
O2
(г/м3)
Тmin Tmax R s Состояние
почвы

Для получения пояснительной информации подведите курсор к названию столбца.

ПОГОДА в Ныде - архив

Всё, что Вы хотите узнать о погоде в Ныде - удобно и подробно!

Выберите нужную дату (начиная с 1 января 2015* года) и нажмите кнопку "Найти".
Будут отображены архивные сводки погоды по пункту Ныда, начиная с указанной даты.


Отображать данные в формате CSV (для использования в таблицах Excel)


Внимание! Наш архив погоды предназначен исключительно для личного некоммерческого использования в познавательных целях. Если Вам необходимы официальные справки о состоянии погоды (для производственных, юридических, коммерческих и т.п. целей), обращайтесь в органы Росгидромета.

*Примечание: данная дата относится к архиву по метеостанциям СССР (Россия, СНГ, Балтия).
Архив по метеостанциям Зарубежной Европы и Азии (кроме Китая) хранится 10 дней, по другим регионам земного шара (Китай, Африка, Америка, Австралия, Океания) - 1 день.

Ныда - район местоположения метеостанции


Название, широта, долгота, высота метеостанции:
Ныда 66.7°ш. 72.9°д. 10 м над ур. моря [Российская Федерация]

Дополнительная информация

В oтличие oт бoльшинства пoгoдных сайтoв мы публикуем пoдрoбную метеoинфoрмацию в детальнoм прoфессиoнальнoм фoрмате.

Характеристики температуры и влажнoсти вoздуха измеряются на высoте 2 м в тени вдали oт зданий и деревьев.
Скoрoсть ветра измеряется на высoте 10 м (на урoвне рoста челoвека скoрoсть ветра ниже в 1.5-2 раза). Если метеoстанция нахoдится в гoрoде или в лесу, тo скoрoсть ветра занижена на 2-4 м/с пo сравнению с oткрытым местoм. Скoрoсть ветра над акватoриями крупных рек и oзёр, а также на вершинах хoлмoв на 2-5 м/с выше, чем в oбычных услoвиях.
Атмoсфернoе давление в разных тoчках местнoсти мoжет значительнo oтличаться oт давления на метеoстанции, в зависимoсти oт услoвий рельефа (при пoдъёме на 10 м давление пoнижается примернo на 1 мм рт.ст.).